Wind_Speed
67 64 64 59 59 62 58 54 52 41 34 36 39 34 27 30 26 25 21 19 23 23 22 21 21 19 19 18 18 16 15 12 11 13 9 10 11 12 10 11 11 12 12
76 76 74 73 68 67 69 64 62 61 55 52 44 44 36 36 34 32 27 24 24 27 29 25 22 18 22 24 24 24 25 24 20 16 17 15 15 15 17 19 17 13 14
81 80 81 82 79 73 75 74 68 65 65 64 56 52 49 42 41 36 36 35 33 34 32 32 33 28 27 24 24 26 26 24 23 20 22 24 23 23 23 23 23 22 22
89 88 86 84 81 82 81 79 75 76 74 77 69 66 55 51 49 45 44 45 44 41 34 33 35 34 35 31 28 26 24 23 23 25 26 24 25 26 29 28 28 28 27
83 84 86 88 84 82 81 81 80 82 80 77 74 72 69 64 63 57 54 47 41 41 40 36 36 39 38 37 36 34 29 27 25 25 25 25 26 26 27 29 30 30 31
85 85 87 88 89 86 83 82 82 83 86 87 85 82 82 76 72 67 63 52 47 39 46 42 38 37 37 38 36 37 36 33 33 32 30 30 30 28 27 31 31 31 31
92 92 93 93 91 90 88 86 84 86 86 87 87 86 85 84 80 77 72 63 56 49 47 43 45 43 40 38 31 33 34 33 33 32 32 33 32 29 29 33 34 35 36
99 100 100 98 96 97 95 93 90 88 89 87 86 86 85 84 85 80 77 73 62 57 54 60 48 56 71 56 54 50 43 42 42 38 34 37 35 33 30 34 37 35 36
97 99 102 103 104 103 102 102 100 97 94 93 90 87 86 86 86 84 82 79 69 62 58 57 62 62 62 56 56 53 55 46 50 47 42 42 40 38 36 33 35 36 32
97 99 102 105 106 109 110 108 109 106 100 98 97 94 89 87 90 88 85 81 74 72 70 71 73 69 68 68 64 69 69 64 53 47 48 50 40 41 42 39 39 40 41
100 101 102 104 106 111 114 114 113 112 111 106 101 99 96 90 89 91 90 84 79 79 80 78 77 74 74 71 73 72 66 62 61 51 49 49 51 49 47 46 47 46 44
100 100 100 104 109 109 111 114 117 116 111 110 108 105 99 98 92 91 91 90 86 81 85 89 83 81 79 81 73 73 79 72 71 68 71 67 63 58 52 53 54 51 51
86 89 89 94 99 103 104 108 113 118 117 112 107 107 105 102 100 94 93 92 92 88 89 91 97 92 92 87 86 78 80 80 74 67 67 72 67 65 56 54 54 52 57
70 69 74 74 80 87 91 93 98 107 114 113 109 101 105 105 102 102 97 95 93 93 92 93 95 100 101 102 98 87 85 83 76 70 69 67 67 69 63 63 61 63 60
55 56 63 60 62 63 68 76 85 94 103 107 104 100 99 102 101 105 102 97 97 95 95 94 95 97 100 102 99 98 93 86 86 80 72 76 71 76 76 76 73 74 71
43 47 51 51 50 50 50 59 72 85 89 91 98 97 96 96 100 100 103 100 98 98 96 95 95 96 100 103 104 102 99 97 93 90 81 83 83 78 79 81 81 76 77
34 33 37 41 37 36 39 45 55 69 76 76 82 88 90 93 95 95 92 96 94 94 93 92 93 97 101 103 105 104 103 100 99 97 96 88 90 87 87 86 85 86 85
25 28 31 31 30 28 30 33 39 46 53 56 62 71 80 83 87 90 84 84 84 87 86 90 92 96 101 103 103 107 102 101 102 103 104 103 96 95 96 97 97 94 93
21 19 18 17 17 13 13 17 21 26 34 41 48 54 65 77 85 85 83 86 85 83 86 90 94 96 96 99 101 100 101 106 102 105 108 106 108 110 106 107 102 100 98
12 9 10 9 10 11 7 8 12 17 18 28 36 41 50 65 78 85 88 79 75 87 91 94 93 95 97 98 98 99 99 99 103 105 103 105 106 107 108 106 105 105 106
8 12 19 26 29 29 27 25 30 28 20 12 21 33 21 23 43 66 75 85 87 86 89 92 94 95 96 98 98 101 101 101 102 103 105 105 107 107 106 108 109 106 110
8 20 23 26 30 33 30 26 22 27 23 23 24 39 57 52 53 51 59 71 77 80 83 86 92 97 98 97 96 98 99 102 102 102 105 106 103 104 107 108 108 109 109
13 26 26 28 30 33 32 24 30 32 33 35 39 48 44 46 43 47 67 71 71 71 77 85 87 91 92 95 94 93 94 96 99 103 106 107 108 108 106 104 105 107 109
10 17 28 26 30 30 32 31 29 32 41 48 51 50 46 54 56 49 45 59 69 73 76 79 85 87 90 93 96 96 96 96 95 96 97 100 105 109 111 112 112 112 110
16 16 17 26 35 32 33 35 33 32 36 46 52 50 53 54 57 59 62 61 65 70 74 80 79 83 84 89 91 93 97 99 99 99 102 101 102 103 107 108 111 115 116
13 19 25 26 29 36 40 41 42 43 46 47 52 55 53 51 57 61 63 66 66 67 69 73 75 79 83 85 86 86 89 94 95 97 99 100 102 104 102 103 104 107 109
Wind_Direction
250 250 251 248 250 256 251 249 246 252 252 256 273 276 260 258 256 256 260 274 273 277 267 265 267 267 270 271 270 270 266 261 251 276 271 257 257 250 253 262 272 271 274
257 254 249 251 253 254 255 256 251 249 250 250 259 266 259 254 254 253 255 271 275 270 273 270 267 264 261 265 269 269 270 267 260 241 259 269 262 260 258 256 258 268 273
259 257 252 254 259 258 256 254 248 247 251 251 254 254 258 252 246 252 259 266 275 278 269 266 268 268 261 255 255 260 263 267 273 260 246 256 257 255 254 260 263 265 268
262 263 263 262 259 259 258 255 253 245 249 254 251 251 251 250 245 252 266 266 279 273 275 274 271 270 272 271 265 262 264 267 269 269 264 258 259 256 257 255 259 260 265
262 263 263 264 261 257 253 252 250 248 244 245 247 247 250 248 248 251 257 265 275 276 275 289 275 273 273 268 264 261 261 262 263 267 271 270 257 257 261 260 263 262 265
257 257 257 256 257 256 255 252 251 248 247 246 246 252 253 251 248 248 249 253 253 259 268 279 290 283 277 270 264 263 259 257 261 261 268 273 274 264 262 267 267 263 260
259 258 257 257 257 257 256 254 252 250 247 246 248 250 250 251 251 249 248 248 247 244 260 263 273 286 278 271 264 262 262 260 260 263 268 272 271 259 258 266 270 272 272
257 257 257 256 256 256 255 253 251 251 251 248 244 245 246 248 251 249 248 248 243 243 242 242 246 253 257 265 261 263 269 272 273 272 266 269 270 271 270 268 269 269 273
256 255 255 255 255 254 252 252 251 249 248 249 247 244 242 243 246 247 246 246 239 234 237 234 233 236 247 256 248 249 260 260 264 266 276 272 262 265 268 271 273 270 264
259 257 255 253 252 252 252 250 249 248 246 246 247 246 242 239 241 244 244 243 240 230 232 230 239 241 245 245 249 257 255 259 257 252 264 264 254 255 256 258 264 267 261
263 261 258 255 252 250 250 251 249 247 245 242 242 244 245 240 239 240 242 241 239 234 229 233 236 237 239 246 248 251 255 257 251 249 257 257 255 253 258 259 260 264 265
268 265 262 261 258 253 249 248 248 248 244 242 240 239 240 243 239 239 238 241 239 234 233 230 231 232 237 240 245 247 252 252 253 260 261 261 254 249 253 258 266 261 260
271 268 265 260 259 259 254 248 247 247 246 241 238 236 237 237 241 238 239 237 239 237 234 234 232 232 233 240 243 244 249 250 254 256 259 261 253 251 250 257 258 259 265
274 273 269 266 260 256 255 253 248 245 244 245 242 235 235 235 236 238 237 239 237 238 238 235 236 237 239 239 242 244 244 248 249 254 251 251 252 255 256 256 258 261 264
280 277 273 270 266 260 257 250 247 245 243 241 240 236 233 235 234 235 237 237 239 238 239 239 238 239 240 240 242 244 243 244 246 249 250 248 251 258 257 259 259 260 263
281 276 278 277 272 268 264 251 244 243 242 237 236 235 231 230 234 233 235 236 237 241 239 240 241 242 242 243 243 244 245 244 243 243 245 248 254 260 259 261 261 261 256
286 287 290 285 283 272 262 253 245 243 243 240 234 230 229 227 230 233 232 236 237 240 244 244 243 242 242 243 245 245 243 244 243 243 244 247 251 253 261 260 261 260 264
310 315 304 295 288 279 264 253 244 242 240 238 235 227 225 225 228 231 231 233 233 235 237 240 242 244 244 245 246 246 246 247 245 245 246 249 247 250 254 259 262 262 264
326 318 312 304 296 293 279 255 241 235 223 219 219 217 219 219 225 230 232 234 230 231 235 240 242 244 247 249 249 249 249 247 248 247 248 248 248 249 251 253 256 260 262
340 359 43 33 74 71 80 162 159 192 201 207 203 206 215 218 225 229 230 232 234 232 234 238 240 243 245 248 251 251 250 249 249 250 250 250 251 254 252 253 253 255 256
41 93 108 104 99 104 110 131 116 107 125 134 177 173 159 202 220 230 236 236 235 235 236 238 243 245 247 248 250 253 253 253 252 252 254 255 256 256 256 257 256 258 258
82 122 125 118 115 112 102 100 108 121 149 153 161 185 190 207 217 228 231 236 239 239 240 242 243 245 248 251 252 253 255 256 256 256 256 257 257 258 259 260 261 262 262
119 136 147 137 128 134 143 152 157 175 176 184 184 179 191 197 209 227 232 236 240 241 240 241 245 248 248 252 253 255 255 256 257 258 259 260 261 261 262 263 265 266 267
177 148 162 163 162 166 167 178 189 200 197 198 201 206 212 217 226 230 235 241 239 243 248 249 251 252 254 254 254 255 256 256 257 259 261 262 262 262 263 263 264 265 267
204 202 196 184 186 190 200 202 211 223 229 224 220 225 226 230 238 244 250 249 249 250 249 250 254 255 254 255 257 259 260 260 260 261 262 263 263 264 264 263 263 264 265
247 233 227 223 214 208 209 216 222 227 233 237 235 233 239 247 247 248 246 245 249 253 254 254 253 255 256 258 258 259 258 258 259 260 261 262 264 265 266 266 265 265 267
Height
10943 10945 10948 10952 10956 10958 10962 10964 10966 10968 10970 10971 10972 10976 10976 10978 10979 10980 10981 10982 10982 10984 10984 10985 10985 10987 10988 10988 10988 10988 10988 10988 10987 10986 10985 10985 10985 10985 10985 10984 10983 10983 10983
10924 10927 10928 10931 10936 10940 10942 10945 10948 10952 10955 10958 10961 10963 10966 10968 10970 10972 10973 10974 10976 10977 10979 10979 10979 10981 10981 10981 10982 10982 10982 10983 10983 10983 10982 10981 10981 10980 10981 10981 10980 10980 10980
10903 10907 10911 10914 10917 10923 10926 10930 10930 10933 10936 10939 10948 10951 10953 10955 10958 10960 10962 10964 10967 10968 10970 10971 10971 10973 10973 10974 10974 10974 10974 10975 10975 10976 10976 10976 10975 10975 10974 10974 10974 10974 10974
10884 10885 10889 10892 10898 10901 10905 10909 10911 10911 10916 10919 10928 10932 10939 10942 10944 10946 10948 10952 10956 10957 10959 10961 10961 10963 10963 10965 10967 10967 10968 10967 10966 10966 10966 10968 10968 10968 10966 10967 10967 10968 10968
10862 10863 10860 10860 10868 10874 10879 10882 10888 10891 10895 10898 10904 10909 10916 10925 10928 10933 10936 10940 10944 10945 10947 10950 10952 10952 10952 10952 10954 10957 10959 10960 10959 10958 10957 10958 10959 10960 10959 10959 10959 10960 10959
10833 10833 10835 10838 10839 10845 10852 10858 10865 10869 10874 10878 10882 10888 10893 10900 10907 10913 10920 10925 10929 10932 10937 10942 10946 10947 10945 10942 10941 10943 10947 10950 10950 10951 10950 10949 10950 10952 10953 10951 10950 10950 10951
10807 10808 10808 10810 10815 10819 10824 10830 10836 10841 10848 10855 10861 10868 10873 10877 10884 10891 10899 10909 10911 10912 10922 10930 10932 10932 10936 10938 10934 10933 10934 10936 10939 10941 10941 10940 10940 10941 10942 10940 10942 10941 10941
10780 10781 10780 10783 10787 10789 10793 10799 10806 10812 10818 10828 10837 10841 10848 10854 10858 10867 10875 10884 10893 10896 10900 10909 10912 10898 10920 10919 10917 10924 10924 10925 10924 10928 10932 10930 10930 10930 10932 10931 10930 10931 10931
10749 10749 10750 10753 10757 10760 10765 10768 10774 10782 10789 10795 10805 10815 10824 10829 10831 10839 10849 10858 10872 10879 10884 10886 10890 10894 10894 10893 10896 10900 10908 10910 10911 10912 10919 10920 10919 10919 10920 10920 10919 10922 10921
10713 10716 10717 10719 10720 10722 10724 10731 10737 10748 10762 10768 10774 10784 10796 10806 10808 10814 10822 10833 10846 10857 10862 10865 10865 10870 10870 10873 10878 10885 10894 10891 10897 10901 10901 10903 10904 10905 10907 10906 10907 10908 10912
10675 10676 10675 10675 10678 10681 10684 10690 10697 10708 10722 10736 10748 10754 10765 10778 10783 10789 10797 10808 10820 10827 10837 10839 10844 10848 10852 10858 10863 10869 10873 10875 10883 10884 10887 10889 10889 10889 10892 10894 10894 10895 10897
10634 10635 10635 10633 10631 10639 10648 10654 10655 10665 10685 10701 10715 10726 10737 10744 10758 10763 10772 10782 10793 10806 10811 10816 10824 10830 10835 10843 10846 10850 10855 10860 10863 10866 10869 10872 10874 10875 10876 10878 10879 10881 10881
10593 10589 10592 10591 10591 10592 10599 10605 10615 10621 10635 10655 10675 10695 10708 10716 10725 10739 10746 10758 10768 10779 10787 10796 10802 10809 10817 10823 10827 10831 10835 10840 10844 10848 10851 10854 10857 10859 10860 10862 10863 10866 10868
10559 10560 10553 10554 10554 10554 10562 10571 10579 10586 10596 10613 10637 10666 10676 10688 10700 10707 10720 10732 10745 10755 10763 10772 10781 10788 10794 10800 10805 10810 10815 10821 10824 10827 10833 10836 10839 10844 10845 10848 10849 10849 10852
10535 10531 10524 10527 10526 10527 10528 10536 10544 10548 10561 10582 10602 10626 10648 10660 10673 10679 10694 10712 10718 10728 10739 10750 10758 10763 10769 10776 10782 10788 10793 10798 10804 10808 10812 10817 10820 10823 10826 10830 10831 10834 10835
10516 10510 10507 10505 10506 10505 10506 10510 10516 10520 10530 10550 10568 10590 10614 10634 10641 10656 10669 10685 10697 10705 10716 10725 10734 10742 10745 10748 10752 10759 10764 10771 10777 10786 10791 10796 10800 10804 10808 10811 10813 10816 10815
10499 10498 10494 10490 10489 10486 10487 10489 10494 10500 10511 10526 10544 10564 10584 10604 10619 10635 10655 10665 10682 10688 10694 10699 10705 10709 10712 10716 10722 10727 10738 10745 10754 10762 10770 10775 10778 10784 10788 10792 10793 10794 10796
10492 10488 10485 10480 10476 10475 10474 10475 10480 10487 10495 10509 10529 10548 10564 10587 10603 10617 10636 10645 10654 10660 10665 10671 10675 10677 10682 10689 10699 10706 10715 10723 10731 10738 10743 10751 10754 10760 10765 10769 10770 10773 10773
10490 10485 10479 10474 10470 10468 10469 10471 10476 10481 10489 10500 10517 10537 10554 10572 10584 10598 10611 10619 10627 10639 10643 10645 10651 10656 10664 10668 10677 10683 10690 10699 10706 10712 10720 10726 10731 10732 10739 10744 10747 10748 10750
10487 10483 10479 10475 10471 10470 10470 10471 10475 10481 10493 10501 10513 10531 10548 10559 10567 10576 10591 10599 10608 10613 10616 10622 10629 10636 10643 10647 10651 10655 10666 10675 10681 10686 10692 10701 10705 10709 10712 10716 10720 10722 10725
10488 10485 10481 10481 10478 10479 10479 10479 10480 10488 10498 10505 10519 10537 10556 10554 10552 10565 10574 10583 10588 10594 10599 10605 10610 10615 10618 10620 10626 10631 10638 10644 10652 10658 10663 10672 10675 10678 10682 10687 10692 10696 10698
10491 10487 10486 10486 10485 10483 10486 10488 10491 10498 10508 10516 10524 10532 10538 10542 10543 10547 10557 10566 10573 10577 10581 10584 10588 10591 10596 10599 10604 10609 10614 10621 10627 10631 10633 10636 10644 10650 10652 10655 10658 10661 10667
10493 10492 10491 10490 10492 10492 10493 10496 10497 10498 10504 10510 10516 10519 10524 10530 10533 10537 10545 10550 10554 10558 10556 10555 10562 10566 10573 10575 10582 10585 10589 10594 10600 10602 10607 10608 10614 10618 10622 10626 10629 10630 10633
10496 10495 10494 10493 10493 10496 10496 10496 10498 10499 10501 10503 10507 10513 10519 10522 10523 10524 10526 10528 10531 10532 10536 10540 10540 10546 10551 10554 10557 10561 10564 10569 10573 10575 10579 10581 10583 10586 10592 10598 10600 10600 10602
10494 10493 10493 10494 10492 10493 10495 10496 10498 10499 10499 10503 10505 10508 10512 10513 10514 10515 10516 10517 10518 10519 10522 10521 10522 10524 10528 10532 10535 10538 10541 10543 10547 10549 10550 10555 10553 10555 10558 10564 10567 10568 10569
10492 10491 10490 10490 10489 10489 10488 10490 10491 10492 10493 10494 10496 10499 10500 10502 10503 10504 10503 10503 10503 10503 10503 10503 10503 10503 10504 10507 10509 10512 10512 10514 10517 10519 10521 10524 10523 10527 10528 10529 10532 10535 10538